Dewpoint
45 45 46 46 47 47 48 48 49 50 50 50 50 50 51 51 51 51 52 52 53 53 53 53 53 54 54 55 55 55 56 56 57 57 57 57 57 58 59 60 60 61 62 62 63 63 64 64 64 63 62 61 60 60 60 60 61 62 61 61 60 60 60 61 61 60 60 60 59
48 48 48 49 49 49 49 50 51 51 51 52 52 52 52 52 51 52 52 52 52 53 53 53 53 54 54 54 55 55 55 55 56 56 56 56 56 56 57 58 59 60 61 62 62 63 63 63 62 60 60 59 58 58 58 59 60 60 59 58 57 57 57 57 56 56 56 56 56
48 49 49 49 49 49 49 50 51 51 51 52 52 52 52 52 52 52 52 52 52 52 53 53 53 53 54 54 54 54 55 55 55 55 55 55 55 55 56 57 58 58 59 60 61 61 60 60 59 58 57 57 57 57 56 57 57 57 56 56 55 55 54 53 54 54 54 54 53
48 48 48 49 49 49 49 50 51 51 51 51 52 52 52 52 52 52 52 52 52 52 52 52 52 52 52 53 53 53 53 53 53 54 54 54 54 55 55 55 56 56 57 58 58 58 58 57 56 56 55 55 55 55 55 55 55 54 54 53 53 53 52 52 51 51 51 51 51
48 48 48 49 49 49 50 50 51 51 51 51 52 52 51 51 51 51 51 51 51 51 51 51 51 51 52 52 52 52 52 52 52 52 53 53 53 53 54 55 55 55 55 55 55 55 55 55 54 54 54 54 54 53 53 53 52 51 51 50 50 50 50 49 49 49 49 49 48
48 48 48 49 49 49 49 50 50 51 51 51 51 51 51 51 51 51 51 51 51 51 51 51 51 51 51 52 51 51 51 51 51 51 52 51 52 52 53 53 53 53 54 54 54 54 54 53 53 52 52 52 52 52 51 51 51 51 50 48 48 47 47 47 47 47 47 47 46
47 48 48 48 48 49 49 49 50 50 50 50 51 51 51 51 51 51 51 51 51 51 51 51 51 51 51 51 51 51 50 50 51 51 51 51 51 51 51 51 51 52 52 53 53 52 52 52 51 51 51 51 50 51 51 51 50 49 48 47 46 46 46 46 47 47 46 46 46
47 47 47 48 48 48 49 49 49 49 49 49 50 50 50 50 50 50 50 50 50 50 50 50 50 50 50 50 50 49 49 49 49 50 50 50 50 50 50 50 50 50 51 51 51 51 51 51 51 51 50 50 49 50 50 49 48 48 46 46 46 46 46 46 46 46 46 46 45
46 46 47 47 47 48 48 48 48 49 49 49 49 49 49 49 49 49 49 49 49 49 49 49 49 49 49 48 48 48 48 48 48 49 49 49 49 49 49 48 48 49 49 49 50 50 50 50 49 49 49 49 48 47 47 47 47 47 46 46 45 45 45 44 45 45 45 45 44
46 46 46 47 47 47 47 48 48 48 48 48 48 48 48 48 48 48 48 48 48 48 48 48 48 48 48 47 47 47 47 47 48 49 49 50 50 50 49 48 48 48 48 48 48 48 48 48 47 47 47 46 46 46 46 47 47 46 46 45 44 43 43 43 43 43 42 42 42
46 46 46 46 47 47 47 47 47 47 47 47 47 47 47 47 47 47 47 47 47 47 47 47 47 47 47 46 46 46 46 46 47 47 48 48 48 49 49 48 48 48 48 47 47 47 47 46 46 45 45 45 45 45 45 46 46 45 44 43 42 42 42 42 42 42 41 41 41
46 46 46 46 46 46 46 46 46 46 46 46 46 46 46 46 47 47 47 47 47 46 46 46 46 46 46 46 46 46 46 45 46 46 46 46 46 46 47 47 47 47 47 46 46 46 46 46 46 45 45 44 44 44 44 45 45 44 43 42 41 41 41 40 40 40 41 40 41
45 46 46 46 46 46 46 46 46 46 46 46 46 46 46 46 46 46 46 46 46 46 45 45 45 45 45 45 45 45 45 45 45 45 45 45 45 45 46 45 45 45 45 45 45 45 45 46 46 46 45 43 43 43 43 44 43 42 42 40 41 41 41 40 40 40 40 40 41
45 45 45 46 46 46 46 46 46 46 46 46 46 46 46 46 46 46 46 46 45 45 44 44 44 44 44 44 44 44 44 44 44 44 44 44 45 45 45 44 44 44 44 43 44 44 44 44 45 45 44 43 43 43 43 43 42 42 42 41 41 41 41 41 41 41 41 41 40
45 45 45 45 45 46 46 46 46 46 46 46 46 46 45 45 45 45 45 45 45 44 44 44 43 43 43 43 44 44 44 43 43 43 43 44 44 44 44 43 43 43 43 43 43 43 43 44 43 43 43 43 42 42 42 42 42 42 42 42 41 41 41 42 42 42 41 41 40
44 44 44 45 45 45 45 46 45 45 45 46 45 45 45 45 45 45 44 44 44 44 44 43 43 43 42 43 43 43 43 43 43 43 43 43 43 43 43 43 43 42 42 42 42 42 42 42 42 42 42 42 42 42 42 42 41 41 41 41 41 41 41 41 41 41 41 40 39
43 44 44 44 44 45 45 45 45 45 45 45 44 44 44 44 44 44 44 44 44 43 43 43 42 42 42 42 42 42 42 42 42 42 42 42 42 42 42 42 42 42 42 41 41 41 41 41 41 42 42 42 41 41 41 41 40 41 41 41 41 41 41 41 41 41 40 40 39
43 43 43 44 44 44 44 44 44 44 44 44 44 44 44 44 44 43 43 43 43 43 42 42 42 42 42 42 42 42 42 42 41 41 41 41 42 41 41 41 41 41 40 40 40 40 40 40 40 40 41 41 40 40 40 40 40 40 40 40 40 40 40 40 40 40 39 39 38
42 42 43 43 43 43 43 43 43 43 43 43 43 43 43 43 43 43 43 43 42 42 42 42 42 42 42 42 42 41 41 41 41 41 41 40 40 40 40 39 39 39 39 38 39 39 39 39 39 39 39 39 39 39 40 40 40 40 40 40 40 40 40 40 39 39 39 38 38
42 42 42 42 43 43 43 43 42 42 42 42 42 42 42 42 43 43 43 42 42 42 42 42 42 41 41 41 41 41 40 40 40 40 39 39 39 39 38 38 38 38 38 38 38 38 39 39 38 39 39 39 39 39 39 39 39 40 40 39 40 39 39 39 39 39 39 39 39
42 42 42 42 42 42 42 42 42 42 42 42 42 42 42 42 43 43 43 42 42 42 42 42 41 41 41 40 40 40 39 39 39 38 38 38 38 38 38 37 37 38 38 37 37 38 38 38 38 38 37 37 38 38 38 38 38 39 39 38 39 39 39 39 39 39 39 39 39
41 41 42 42 42 42 42 42 42 42 42 42 42 42 42 42 42 42 42 42 42 42 42 41 41 41 40 40 39 39 39 38 38 38 38 37 37 37 37 37 38 39 39 38 38 38 37 37 37 37 37 37 37 38 37 37 37 37 37 37 38 39 39 39 39 39 39 39 39
41 41 41 41 41 42 42 42 42 41 41 41 41 41 41 41 41 42 42 41 41 41 41 41 41 40 40 40 39 38 38 38 38 38 38 38 38 38 38 38 39 39 39 38 39 38 38 37 36 36 36 37 37 38 37 36 36 36 37 37 37 38 39 39 39 39 39 38 38
40 41 41 41 41 41 41 41 41 41 41 41 41 41 41 41 41 41 41 41 41 41 41 40 40 39 39 38 38 38 38 38 39 39 39 39 39 39 39 39 39 38 38 37 38 38 37 36 36 36 36 36 36 36 36 35 35 36 36 36 36 37 37 37 38 38 38 38 37
40 40 41 41 41 41 41 41 41 41 41 41 41 40 40 40 40 40 40 40 40 40 40 40 39 39 38 37 37 37 38 38 38 39 39 39 39 39 39 37 37 36 36 37 37 37 37 36 36 36 35 35 35 34 34 35 34 34 34 34 34 34 35 35 36 36 35 35 36
41 41 41 41 41 40 40 40 40 40 41 40 40 40 40 40 40 40 39 39 39 39 39 40 39 38 37 37 37 37 37 37 38 39 39 39 38 37 37 36 35 36 37 37 37 37 37 37 37 36 35 35 34 34 34 34 34 34 33 33 33 33 33 33 33 33 33 32 33
41 41 41 41 40 40 40 40 40 40 40 40 39 39 39 39 39 39 39 39 38 38 38 39 38 37 37 37 38 38 38 37 38 38 38 38 37 37 36 36 35 36 37 37 38 38 38 38 37 37 36 36 35 34 34 33 34 34 34 34 33 33 33 33 33 33 33 32 32
41 41 41 40 40 39 39 39 40 40 40 39 39 39 39 39 39 39 38 38 38 38 38 38 38 38 38 38 38 38 38 37 37 37 37 37 37 36 36 37 36 36 37 38 38 38 38 38 38 37 37 37 37 36 35 34 33 34 35 34 34 34 34 34 34 33 33 32 32
42 41 41 40 39 39 39 39 40 39 39 39 39 39 39 38 38 38 38 38 38 38 39 39 39 39 39 38 38 38 37 37 37 37 37 37 37 37 37 38 38 38 38 38 38 38 38 38 38 37 37 37 37 36 35 33 33 33 33 33 34 34 34 33 33 32 32 31 31
42 42 42 41 39 39 39 39 39 39 39 38 38 38 38 38 38 38 38 38 39 39 40 40 40 39 39 39 38 38 38 38 37 37 37 38 37 37 37 38 39 39 39 39 38 38 38 38 38 37 37 37 36 35 34 33 33 33 32 32 32 32 32 32 31 31 30 30 30
42 42 42 41 40 39 38 39 38 38 38 38 38 38 38 38 39 39 39 40 40 40 40 40 40 40 39 39 39 39 39 39 38 37 37 37 37 38 39 39 39 39 39 39 38 38 38 38 37 37 36 35 34 33 33 33 32 31 31 30 30 30 30 30 30 30 29 29 28
42 42 41 41 40 39 39 38 38 38 38 38 38 38 39 39 39 39 40 40 40 40 40 40 40 40 39 39 39 39 39 39 38 38 38 38 38 38 39 39 39 39 39 39 38 38 38 37 37 36 35 33 32 31 31 30 29 29 28 28 29 29 29 30 29 29 29 28 28
42 42 41 41 41 40 40 39 39 39 39 38 38 39 39 39 39 40 40 40 40 40 40 40 39 39 39 39 39 39 39 39 39 39 39 39 39 39 39 39 39 39 39 38 38 38 37 37 36 35 34 32 31 30 29 28 28 28 27 27 28 28 28 28 28 28 28 28 28
42 41 41 41 41 41 40 40 40 40 39 39 39 39 39 39 39 39 39 40 40 40 40 39 39 39 39 39 38 39 39 39 39 39 39 38 38 39 39 39 40 39 39 38 38 37 37 36 35 34 33 31 30 28 27 27 27 27 26 27 27 27 27 28 28 28 28 28 28
41 41 41 41 41 40 40 40 40 39 39 39 39 39 39 39 39 39 39 40 40 40 40 39 39 39 39 38 38 38 39 39 39 39 38 38 38 38 38 38 39 39 38 38 38 37 37 36 34 33 31 29 28 27 26 26 25 25 26 26 26 27 27 27 27 26 26 27 27
41 41 41 40 40 40 40 39 39 39 38 38 38 38 38 39 39 39 39 39 39 39 39 39 39 38 38 38 37 37 38 38 38 38 39 38 38 37 37 37 37 37 38 37 37 37 36 35 33 32 30 28 27 26 25 25 25 25 25 25 25 26 26 27 26 26 26 26 26
41 41 40 40 40 40 39 39 39 38 38 38 38 38 38 38 38 38 39 39 38 38 38 38 38 37 37 37 36 36 37 37 37 37 38 38 38 37 36 36 36 36 37 37 36 36 35 34 33 31 28 27 26 25 24 24 24 24 24 24 24 25 26 26 26 27 27 27 27
41 41 40 40 40 39 39 39 38 38 37 37 37 37 38 38 37 38 38 38 37 37 37 37 37 36 35 34 33 33 34 36 37 37 37 37 37 36 35 35 35 35 35 35 35 34 34 33 32 30 28 25 24 23 23 22 22 22 22 23 24 24 25 25 26 27 28 29 29
41 41 41 40 40 39 39 38 38 38 37 37 37 37 37 37 37 37 37 37 37 37 36 35 34 34 33 33 33 33 33 34 34 34 34 35 35 34 33 33 33 33 33 33 33 33 33 33 31 29 27 24 22 22 21 21 21 21 22 22 23 23 24 24 25 26 27 29 30
41 41 41 40 40 39 39 38 38 38 37 37 37 37 37 37 37 37 37 37 37 36 35 34 33 33 33 33 33 32 32 32 32 32 32 33 33 33 33 32 31 31 30 31 31 32 31 31 30 28 26 23 21 21 20 20 21 21 22 22 22 22 23 23 24 25 25 27 28
41 41 40 39 39 38 38 37 37 37 37 37 37 37 37 37 37 36 36 36 36 35 34 33 33 33 33 33 32 32 31 31 31 30 30 30 31 31 31 31 30 30 29 29 30 30 30 30 29 28 25 22 21 20 20 20 21 21 21 22 21 21 22 23 23 24 24 24 25